EST,Max TemperatureF,Mean TemperatureF,Min TemperatureF,Max Dew PointF,MeanDew PointF,Min DewpointF,Max Humidity, Mean Humidity, Min Humidity, Max Sea Level PressureIn, Mean Sea Level PressureIn, Min Sea Level PressureIn, Max VisibilityMiles, Mean VisibilityMiles, Min VisibilityMiles, Max Wind SpeedMPH, Mean Wind SpeedMPH, Max Gust SpeedMPH,PrecipitationIn, CloudCover, Events, WindDirDegrees
2013-12-1,32,30,28,32,27,22,100,85,73,30.10,30.06,30.00,10,8,2,12,5,,0.00,8,,49
2013-12-2,32,29,26,24,21,17,84,73,55,30.00,29.94,29.90,10,10,10,10,3,,0.00,4,,43
2013-12-3,30,26,22,28,23,19,96,90,82,29.99,29.95,29.92,10,8,1,17,10,28,0.00,7,Snow,70
2013-12-4,41,34,27,41,31,26,100,95,91,29.96,29.79,29.40,10,4,1,24,16,41,0.12,8,Rain-Snow,89
2013-12-5,46,34,21,46,26,11,100,78,64,30.01,29.66,29.37,10,9,1,33,20,45,0.01,8,Rain,241
2013-12-6,22,18,15,13,11,8,79,68,58,30.29,30.17,30.01,10,10,7,26,18,33,0.00,5,Snow,276
2013-12-7,19,16,13,13,9,4,85,70,54,30.47,30.41,30.29,10,10,7,22,15,29,0.00,6,Snow,274
2013-12-8,24,16,9,23,11,3,94,79,59,30.49,30.36,30.04,10,7,2,12,7,20,0.01,6,Snow,233
2013-12-9,28,20,10,27,20,4,96,86,68,30.02,29.79,29.67,10,4,0,31,11,44,0.04,8,Snow,236
2013-12-10,18,12,7,13,8,4,89,81,67,29.96,29.85,29.72,10,4,0,28,13,36,0.05,7,Snow,300
2013-12-11,14,12,10,8,4,1,80,70,57,30.27,30.14,29.97,10,10,10,24,18,33,0.00,2,Snow,281
2013-12-12,18,14,10,10,7,1,84,69,60,30.24,30.08,29.96,10,8,0,28,19,36,0.00,7,Snow,269
2013-12-13,17,9,1,10,-1,-6,83,71,57,30.40,30.22,29.97,10,9,1,23,13,33,0.00,2,Snow,12
2013-12-14,16,11,6,12,7,-8,91,83,49,30.40,30.20,29.89,10,3,0,22,14,30,0.00,7,Snow,62
2013-12-15,18,12,5,16,11,2,93,88,78,29.96,29.78,29.68,10,3,0,16,11,22,0.00,8,Snow,52
2013-12-16,14,5,-4,12,2,-9,88,80,70,30.12,30.03,29.89,10,8,1,16,7,24,0.00,4,Snow,96
2013-12-17,24,20,15,22,16,12,95,88,84,29.89,29.80,29.75,10,8,1,17,8,26,0.00,8,Snow,243
2013-12-18,24,21,18,21,17,13,94,83,75,29.96,29.87,29.70,10,9,1,18,11,29,0.03,8,Snow,248
2013-12-19,27,24,19,24,20,15,91,85,78,30.05,29.89,29.67,10,10,10,14,10,18,0.00,6,,309
2013-12-20,19,16,14,17,15,12,93,89,78,30.02,29.94,29.84,10,6,1,16,12,18,0.00,8,Snow,48
2013-12-21,23,20,18,19,18,16,96,88,81,30.00,29.91,29.81,10,10,7,21,8,29,0.01,6,Snow,49
2013-12-22,21,14,8,16,11,5,92,83,72,30.05,29.92,29.83,10,5,0,25,19,36,0.00,7,Snow,46
2013-12-23,8,5,1,6,2,-3,89,83,75,30.33,30.21,30.05,10,6,2,10,7,,0.01,7,Snow,17
2013-12-24,7,0,-7,1,-5,-11,88,78,59,30.45,30.41,30.33,10,10,10,13,5,18,0.00,0,,40
2013-12-25,20,14,8,19,14,3,96,90,73,30.37,30.06,29.99,10,5,0,17,11,32,0.00,7,Snow,214
2013-12-26,19,15,11,15,11,5,91,83,75,30.16,30.05,29.95,10,10,10,15,7,17,0.00,6,Snow,261
2013-12-27,34,19,4,32,15,1,91,84,75,30.18,30.05,29.81,10,10,2,23,9,30,0.00,5,Snow,228
2013-12-28,34,32,31,33,31,29,100,94,88,29.95,29.86,29.72,10,7,1,17,9,22,0.00,8,,227
2013-12-29,32,18,4,33,12,1,100,89,74,30.02,29.83,29.70,10,7,1,17,11,25,0.00,7,Snow,352
2013-12-30,11,4,-2,6,2,-6,91,80,66,30.17,30.09,30.01,10,9,1,18,7,23,0.00,6,Snow,270
2013-12-31,9,6,2,6,-1,-5,87,72,56,30.24,30.05,29.93,10,9,4,28,13,34,0.00,4,Snow,268